[[{"header":{"parameterUnit":"m.s-1","parameterCategory":1,"la1":30.2991,"la2":30.254,"lo1":-89.0895,"lo2":-89.0444,"dy":0.0017,"dx":0.0017,"nx":28,"ny":28,"refTime":"2025-07-25T21:00:00:Z","depth":0,"parameterNumber":2,"parameterNumberName":"U-component_of_WINDS"},"data":[0,0,0,0,0,0,0,0,0,0,0,0,0,0,0,0,0,0,0,0,0,0,0,0,0,0,0,0,0,0,0,0,0,0,0,0,0,0,0,0,0,0,0,0,0,0,0,0,0,0,0,0,0,0,0,0,0,0,-1.8583,-1.8583,0,-1.8626,-1.8627,-1.8627,-1.8623,-1.8623,-1.8622,-1.8621,-1.8668,-1.867,-1.8672,0,0,0,0,0,0,0,0,0,0,0,0,0,-1.8498,-1.8499,-1.8583,-1.8583,-1.8584,-1.8626,-1.8627,-1.8628,-1.8624,-1.8623,-1.8622,-1.8621,-1.8668,-1.867,-1.8672,0,0,0,0,0,0,0,0,0,0,0,0,0,-1.8538,-1.85,-1.8583,-1.8587,-1.8588,-1.8626,-1.8627,-1.8628,-1.8624,-1.8623,-1.8622,-1.8621,-1.8667,-1.867,-1.8672,-1.871,0,0,-1.8681,-1.8682,0,0,0,0,0,0,0,0,-1.8535,-1.8541,-1.8586,-1.8587,-1.8588,-1.8618,-1.8614,-1.8655,-1.8624,-1.861,-1.8621,-1.862,-1.8653,-1.8657,-1.8667,-1.8712,-1.8714,-1.8681,-1.8683,-1.8684,-1.8685,0,0,0,0,0,0,0,-1.8533,-1.8539,-1.86,-1.8586,-1.8588,-1.8587,-1.8592,-1.8622,-1.8637,-1.8611,-1.8611,-1.8616,-1.8653,-1.8664,-1.8668,-1.8715,-1.8681,-1.8684,-1.8685,-1.8687,-1.8795,-1.8796,0,0,0,0,0,0,-1.8528,-1.8536,-1.8599,-1.8601,-1.8558,-1.859,-1.8595,-1.861,-1.8636,-1.8639,-1.8617,-1.8616,-1.866,-1.8665,-1.867,-1.8717,-1.8684,-1.8687,-1.8688,-1.8794,-1.8796,-1.8797,0,0,0,0,0,0,-1.8527,-1.8534,-1.8597,-1.8569,-1.8577,-1.8592,-1.8609,-1.8611,-1.8622,-1.8641,-1.8643,-1.8626,-1.8659,-1.8666,-1.87,-1.8719,-1.8688,-1.8691,-1.8793,-1.8795,-1.8796,-1.8811,0,0,0,0,0,0,-1.8524,-1.8533,-1.8547,-1.8569,-1.8578,-1.8626,-1.861,-1.8613,-1.8627,-1.8626,-1.865,-1.8653,-1.8659,-1.8696,-1.8703,-1.8722,-1.8693,-1.8791,-1.8794,-1.8796,-1.8809,-1.8814,-1.8817,0,0,0,0,0,-1.8521,-1.855,-1.8548,-1.8556,-1.8596,-1.8627,-1.8633,-1.8639,-1.8628,-1.8643,-1.8655,-1.8652,-1.8715,-1.87,-1.8708,-1.8728,-1.879,-1.8793,-1.8796,-1.8808,-1.8813,-1.8817,0,0,0,0,0,0,-1.8531,-1.8553,-1.8551,-1.8588,-1.8606,-1.8626,-1.8645,-1.8644,-1.8666,-1.8664,-1.8671,-1.8677,-1.8712,-1.8723,-1.8705,-1.8766,-1.8751,-1.8756,-1.8758,-1.8763,-1.8767,-1.8764,-1.8695,0,0,0,0,0,-1.8537,-1.8559,-1.8578,-1.8609,-1.8618,-1.863,-1.8644,-1.8647,-1.8666,-1.8674,-1.8688,-1.8707,-1.8732,-1.8748,-1.8771,-1.881,-1.8816,-1.8828,-1.8832,-1.8835,-1.8839,-1.8862,-1.8868,-1.8806,-1.8806,-1.8806,0,0,-1.855,-1.8565,-1.8579,-1.8611,-1.8625,-1.865,-1.8636,-1.8662,-1.8681,-1.8678,-1.8712,-1.8723,-1.8745,-1.8783,-1.88,-1.8793,-1.8858,-1.8838,-1.8841,-1.8843,-1.8866,-1.8872,-1.8877,-1.8808,-1.8807,-1.8807,0,0,-1.8587,-1.86,-1.8628,-1.8642,-1.8664,-1.8672,-1.8678,-1.87,-1.8707,-1.8741,-1.8739,-1.8762,-1.8803,-1.8819,-1.8833,-1.8876,-1.8875,-1.8884,-1.8904,-1.8927,-1.8932,-1.8936,-1.8953,-1.8959,-1.8887,-1.8888,-1.8888,0,-1.8601,-1.8637,-1.8642,-1.8669,-1.8684,-1.8681,-1.871,-1.8724,-1.8752,-1.8763,-1.8754,-1.8807,-1.8821,-1.8863,-1.8874,-1.8885,-1.8894,-1.8882,-1.893,-1.8935,-1.8939,-1.8956,-1.8962,-1.8889,-1.8888,-1.8888,-1.8888,0,-1.8655,-1.868,-1.8699,-1.8727,-1.8743,-1.8771,-1.8781,-1.8797,-1.8799,-1.8808,-1.8843,-1.886,-1.8888,-1.8898,-1.89,-1.894,-1.8936,-1.8929,-1.8914,-1.8946,-1.8962,-1.8968,-1.889,-1.889,-1.8889,-1.8889,0,0,-1.87,-1.8729,-1.8737,-1.8749,-1.8773,-1.8793,-1.8821,-1.8847,-1.8861,-1.8881,-1.8905,-1.894,-1.8934,-1.895,-1.8954,-1.8973,-1.9009,-1.8964,-1.8965,-1.8973,-1.9056,-1.9063,-1.907,-1.9007,-1.9008,-1.9009,-1.9055,0,-1.8741,-1.8789,-1.8795,-1.8839,-1.8863,-1.8861,-1.8885,-1.8903,-1.8912,-1.8934,-1.8944,-1.897,-1.8959,-1.8969,-1.8988,-1.9,-1.9026,-1.8997,-1.9031,-1.9033,-1.9028,-1.9078,-1.9084,-1.9127,-1.9061,-1.9062,-1.9063,0,-1.8795,-1.8816,-1.8862,-1.8883,-1.8894,-1.8915,-1.894,-1.8961,-1.8982,-1.8987,-1.9004,-1.9006,-1.9035,-1.9018,-1.906,-1.904,-1.9055,-1.9063,-1.9065,-1.907,-1.9051,-1.9086,-1.914,-1.9147,-1.9072,-1.9071,-1.9071,0,-1.8826,-1.8865,-1.8899,-1.8909,-1.8934,-1.895,-1.8961,-1.898,-1.8996,-1.9018,-1.9028,-1.9053,-1.9067,-1.9087,-1.9096,-1.9082,-1.9138,-1.9121,-1.9144,-1.9144,-1.9158,-1.9157,-1.9217,-1.9164,-1.9164,-1.9164,-1.9164,0,-1.8872,-1.8901,-1.8913,-1.8933,-1.8966,-1.8972,-1.9004,-1.9015,-1.9032,-1.9055,-1.9054,-1.9076,-1.9085,-1.9109,-1.9116,-1.915,-1.9156,-1.9163,-1.9164,-1.9164,-1.9163,-1.9175,-1.9172,-1.9165,-1.9165,-1.9165,-1.9164,0,-1.8913,-1.8921,-1.8958,-1.8978,-1.8984,-1.9007,-1.9025,-1.9046,-1.9054,-1.9084,-1.9091,-1.9105,-1.9133,-1.9143,-1.9177,-1.9181,-1.9222,-1.9221,-1.9215,-1.9216,-1.924,-1.9238,-1.9311,-1.9321,-1.9259,-1.926,-1.926,0,-1.8943,-1.8965,-1.8987,-1.9003,-1.9014,-1.9039,-1.9055,-1.9061,-1.9078,-1.9103,-1.9121,-1.9148,-1.9171,-1.9216,-1.923,-1.9256,-1.9256,-1.928,-1.926,-1.9259,-1.9259,-1.9258,-1.9261,-1.9284,-1.9285,-1.9285,-1.9286,0,-1.8995,-1.8998,-1.9021,-1.9046,-1.9065,-1.9084,-1.9103,-1.9116,-1.9126,-1.9145,-1.9173,-1.919,-1.9225,-1.9253,-1.928,-1.9292,-1.9292,-1.9291,-1.9299,-1.9299,-1.9296,-1.93,-1.9227,-1.929,-1.929,-1.9289,-1.9289,-1.9289,-1.9033,-1.9053,-1.9072,-1.9098,-1.9112,-1.913,-1.9151,-1.9162,-1.9185,-1.9214,-1.9216,-1.9247,-1.9267,-1.9303,-1.9317,-1.9342,-1.9335,-1.9345,-1.9348,-1.9351,-1.9354,-1.929,-1.9346,-1.9346,-1.9346,-1.9346,-1.9346,0,-1.9087,-1.9099,-1.9122,-1.9149,-1.917,-1.9165,-1.9186,-1.9204,-1.9231,-1.9249,-1.9272,-1.9305,-1.9332,-1.9347,-1.9375,-1.9392,-1.9392,-1.9399,-1.9399,-1.9402,-1.9357,-1.9349,-1.9398,-1.9398,-1.9398,-1.9398,-1.9398,-1.9398,-1.9118,-1.9152,-1.9157,-1.9199,-1.9211,-1.9241,-1.9254,-1.9271,-1.9286,-1.9322,-1.9345,-1.9354,-1.9372,-1.9401,-1.9426,-1.943,-1.9441,-1.9449,-1.9452,-1.941,-1.9405,-1.94,-1.9392,-1.945,-1.945,-1.9495,-1.9496,-1.9496]},{"header":{"parameterUnit":"m.s-1","parameterCategory":1,"la1":30.2991,"la2":30.254,"lo1":-89.0895,"lo2":-89.0444,"dy":0.0017,"dx":0.0017,"nx":28,"ny":28,"refTime":"2025-07-25T21:00:00:Z","depth":0,"parameterNumber":3,"parameterNumberName":"V-component_of_WINDS"},"data":[0,0,0,0,0,0,0,0,0,0,0,0,0,0,0,0,0,0,0,0,0,0,0,0,0,0,0,0,0,0,0,0,0,0,0,0,0,0,0,0,0,0,0,0,0,0,0,0,0,0,0,0,0,0,0,0,0,0,4.5885,4.5887,0,4.5997,4.5998,4.5999,4.5935,4.5931,4.5928,4.5925,4.6036,4.6042,4.6047,0,0,0,0,0,0,0,0,0,0,0,0,0,4.5613,4.5618,4.5885,4.5887,4.5888,4.5996,4.5998,4.5999,4.5935,4.5931,4.5927,4.5924,4.6034,4.6041,4.6048,0,0,0,0,0,0,0,0,0,0,0,0,0,4.5728,4.562,4.5885,4.5869,4.5869,4.5996,4.5998,4.6,4.5936,4.5931,4.5926,4.5922,4.6032,4.604,4.6049,4.6197,0,0,4.6076,4.608,0,0,0,0,0,0,0,0,4.5722,4.5738,4.587,4.587,4.587,4.5947,4.5942,4.6066,4.5937,4.591,4.5925,4.592,4.601,4.602,4.6051,4.6202,4.6207,4.6077,4.6082,4.6086,4.6088,0,0,0,0,0,0,0,4.5714,4.5733,4.5929,4.5872,4.5872,4.5855,4.5866,4.5965,4.5985,4.5912,4.5908,4.5922,4.6009,4.6043,4.6053,4.6209,4.6076,4.6084,4.609,4.6093,4.6484,4.6489,0,0,0,0,0,0,4.5707,4.5727,4.5926,4.5932,4.5783,4.5864,4.5876,4.5927,4.5984,4.5988,4.5926,4.5919,4.603,4.6043,4.6057,4.6233,4.6086,4.6094,4.6099,4.6479,4.6485,4.6491,0,0,0,0,0,0,4.5702,4.5726,4.5921,4.5829,4.5852,4.5873,4.5931,4.5932,4.5966,4.5994,4.5997,4.5957,4.6027,4.6045,4.6162,4.6236,4.6098,4.6106,4.6473,4.6481,4.6488,4.6587,0,0,0,0,0,0,4.5694,4.5724,4.5782,4.583,4.5857,4.6027,4.5935,4.5937,4.5981,4.5973,4.6024,4.6028,4.6025,4.615,4.6171,4.6245,4.6113,4.6467,4.6477,4.6486,4.6577,4.6597,4.6614,0,0,0,0,0,4.5685,4.5805,4.5785,4.581,4.593,4.6031,4.6046,4.6041,4.5988,4.6045,4.6063,4.6027,4.6224,4.6162,4.6186,4.6264,4.6462,4.6474,4.6485,4.6569,4.6593,4.6613,0,0,0,0,0,0,4.5764,4.5811,4.579,4.5929,4.5977,4.602,4.6092,4.6067,4.6129,4.6118,4.6108,4.612,4.6242,4.6265,4.6195,4.6409,4.6335,4.6351,4.639,4.6413,4.6431,4.6423,4.612,0,0,0,0,0,4.5798,4.5877,4.5913,4.6033,4.6058,4.6071,4.6115,4.6106,4.6154,4.6174,4.62,4.6247,4.632,4.6368,4.6436,4.658,4.6589,4.6645,4.6663,4.6678,4.6692,4.6768,4.6793,4.6529,4.6529,4.6528,0,0,4.5868,4.5904,4.5954,4.605,4.6085,4.6166,4.6088,4.6177,4.6236,4.6187,4.63,4.6321,4.6372,4.6503,4.6562,4.6526,4.6767,4.6693,4.6704,4.6711,4.6782,4.6807,4.683,4.6537,4.6535,4.6534,0,0,4.6038,4.6073,4.6176,4.6213,4.6268,4.6276,4.6301,4.6348,4.636,4.6473,4.6437,4.6507,4.6632,4.667,4.6706,4.6888,4.6856,4.691,4.7006,4.708,4.7101,4.7119,4.7183,4.7206,4.6924,4.6925,4.6925,0,4.6118,4.6239,4.6232,4.6324,4.6366,4.6325,4.6428,4.6464,4.6538,4.6568,4.6526,4.6681,4.6713,4.6852,4.6896,4.6927,4.6953,4.6904,4.7098,4.7117,4.7134,4.7194,4.7218,4.6931,4.693,4.693,4.6929,0,4.6334,4.6419,4.6495,4.6569,4.6619,4.6716,4.6722,4.6774,4.676,4.6772,4.6887,4.6923,4.6998,4.703,4.7018,4.7166,4.7142,4.71,4.7024,4.7165,4.7222,4.7245,4.694,4.6937,4.6936,4.6934,0,0,4.6557,4.6625,4.6653,4.6685,4.6742,4.6806,4.69,4.6974,4.7018,4.707,4.7147,4.7254,4.7215,4.7255,4.7247,4.7312,4.7452,4.7261,4.7262,4.7294,4.7615,4.7646,4.7673,4.7431,4.7436,4.7439,4.7611,0,4.6729,4.6895,4.689,4.7044,4.7121,4.7082,4.7164,4.7207,4.722,4.7286,4.7299,4.7375,4.7318,4.7342,4.7405,4.7422,4.7516,4.7409,4.7501,4.7505,4.7489,4.7703,4.7737,4.7897,4.7633,4.7637,4.7639,0,4.6953,4.7013,4.7174,4.7219,4.7251,4.7324,4.739,4.7454,4.7501,4.7506,4.7551,4.7531,4.7625,4.7547,4.7675,4.7602,4.7639,4.7653,4.7659,4.7667,4.758,4.7716,4.7948,4.7972,4.7674,4.7672,4.7669,0,4.7098,4.7219,4.7331,4.7359,4.7414,4.7466,4.7492,4.7534,4.7578,4.7635,4.7663,4.773,4.7767,4.7818,4.7817,4.7761,4.7945,4.7868,4.795,4.7951,4.7991,4.7988,4.8231,4.8016,4.8016,4.8015,4.8015,0,4.729,4.739,4.7396,4.7465,4.7575,4.7568,4.7676,4.7696,4.7734,4.7804,4.7775,4.7841,4.7836,4.7902,4.7902,4.8006,4.8023,4.8028,4.8027,4.8031,4.803,4.8055,4.8043,4.8022,4.802,4.8019,4.8018,0,4.747,4.7479,4.7598,4.764,4.7653,4.7732,4.7767,4.7831,4.7841,4.7931,4.7951,4.7967,4.8044,4.8047,4.8136,4.8135,4.8262,4.8248,4.8246,4.8244,4.8325,4.8317,4.8592,4.8627,4.839,4.8392,4.8394,0,4.7592,4.7668,4.7718,4.7764,4.7792,4.7866,4.7911,4.7906,4.7953,4.8012,4.8068,4.8143,4.8202,4.8326,4.8344,4.841,4.8398,4.8489,4.8408,4.8409,4.8398,4.8393,4.84,4.8505,4.8508,4.851,4.8512,0,4.7807,4.7807,4.7873,4.7941,4.7995,4.8048,4.8097,4.8136,4.8136,4.819,4.8269,4.8315,4.8405,4.8478,4.8543,4.8567,4.8539,4.8537,4.856,4.8564,4.856,4.8562,4.8289,4.8531,4.8529,4.8528,4.8527,4.8526,4.7961,4.8026,4.8072,4.8146,4.8182,4.8228,4.829,4.8308,4.8374,4.8448,4.844,4.8527,4.857,4.8654,4.8683,4.875,4.8718,4.8751,4.8759,4.8767,4.8775,4.855,4.8762,4.8761,4.8761,4.876,4.876,0,4.8174,4.8201,4.8269,4.8339,4.8396,4.8366,4.8418,4.8468,4.8546,4.8589,4.8647,4.8737,4.8807,4.8831,4.8899,4.8948,4.8936,4.8965,4.8961,4.8967,4.88,4.8774,4.8973,4.8973,4.8973,4.8973,4.8973,4.8973,4.8291,4.8399,4.8405,4.853,4.8555,4.8641,4.8673,4.8715,4.8749,4.8851,4.891,4.8925,4.8959,4.9029,4.9092,4.9097,4.9123,4.9157,4.9157,4.9,4.8979,4.8959,4.8933,4.9163,4.9163,4.9318,4.9319,4.932]}]]